Regional Weather Roundup
Issued by NWS

Home | Current Version | Previous Version | Graphics & Text | Print | Product List | Glossary On
Versions: 1 2 3 4 5 6 7 8 9 10 11 12 13 14 15 16 17 18 19 20 21 22 23 24 25 26 27 28 29 30 31 32 33 34 35 36 37 38 39 40 41 42 43 44 45 46 47 48 49 50
000
ASUS43 KOAX 061410
RWRNE

WEATHER ROUNDUP FOR NEBRASKA
NATIONAL WEATHER SERVICE OMAHA NE
900 AM CDT MON JUL 06 2015

NOTES: SATELLITE DATA IS BEING USED TO AUGMENT CLOUD COVER ABOVE
       12000 FEET.
       "FAIR" INDICATES FEW OR NO CLOUDS BELOW 12,000 FEET WITH NO
       SIGNIFICANT WEATHER AND/OR OBSTRUCTIONS TO VISIBILITY.

  * THESE STATIONS DO NOT REPORT WEATHER SUCH AS RAIN...SNOW OR FOG.

NEZ001>004-019>022-054>056-061500-
NEBRASKA PANHANDLE

CITY           SKY/WX    TMP DP  RH WIND       PRES   REMARKS
SCOTTSBLUFF    CLOUDY    60  55  83 NE10      30.21R HAZE
ALLIANCE       CLOUDY    59  56  89 N14       30.18R FOG
CHADRON        CLOUDY    60  57  89 N7        30.20R FOG
KIMBALL          N/A    N/A N/A N/A MISG        N/A
SIDNEY         CLOUDY    59  57  93 NE17G25   30.19R
$$

NEZ057>060-069>072-079>082-061500-
SOUTHWEST NEBRASKA

CITY           SKY/WX    TMP DP  RH WIND       PRES   REMARKS
NORTH PLATTE   CLOUDY    65  60  84 N12       30.05R
IMPERIAL       CLOUDY    64  60  87 N20G26    30.08R
LEXINGTON      CLOUDY    68  64  87 N18G26    29.98R
MCCOOK         CLOUDY    67  63  87 N18       29.99R
OGALLALA       CLOUDY    64  59  85 N17G23    30.11R
$$

NEZ005>010-023>029-035>040-094-061500-
NORTH CENTRAL NEBRASKA

CITY           SKY/WX    TMP DP  RH WIND       PRES   REMARKS
VALENTINE      CLOUDY    64  60  87 N12       30.10R FOG
AINSWORTH      DRIZZLE   63  63 100 N14G24    30.08R
BROKEN BOW     CLOUDY    67  63  87 N22G31    30.00R
O`NEILL        RAIN      66  65  98 N12       30.01R
ORD            CLOUDY    67  65  93 N12G21    29.97R
THEDFORD       CLOUDY    63  60  90 N12G18    30.09F FOG
$$

NEZ041-046>049-061>064-073>077-083>087-061500-
SOUTH CENTRAL NEBRASKA

CITY           SKY/WX    TMP DP  RH WIND       PRES   REMARKS
GRAND ISLAND   CLOUDY    72  69  90 N12       29.93R
AURORA         CLOUDY    71  71 100 N5        29.91R
HASTINGS       CLOUDY    71  69  93 N8        29.91R
HEBRON         CLOUDY    76  67  73 E6        29.85F
HOLDREGE       LGT RAIN  68  66  93 N15       29.94S
KEARNEY *      CLOUDY    70  66  88 N12       29.94S
YORK           CLOUDY    72  70  94 N6        29.90R
$$

NEZ011>018-030>034-042>045-061500-
NORTHEAST NEBRASKA

CITY           SKY/WX    TMP DP  RH WIND       PRES   REMARKS
NORFOLK        LGT RAIN  70  69  97 W5        29.91R
ALBION         CLOUDY    69  67  93 NW9       29.93S
BLAIR          CLOUDY    72  69  90 CALM      29.88R
FREMONT        CLOUDY    74  71  90 NW3       29.88R
TEKAMAH        CLOUDY    73  71  93 SW3       29.86R
WAYNE          DRIZZLE   70  69  95 W5        29.89R
$$

NEZ050>053-065>068-078-088>093-061500-
SOUTHEAST NEBRASKA

CITY           SKY/WX    TMP DP  RH WIND       PRES   REMARKS
LINCOLN        CLOUDY    74  71  91 CALM      29.87R
OMAHA EPPLEY   LGT RAIN  74  71  91 N5        29.87R
BEATRICE       CLOUDY    78  70  74 E6        29.87S
FALLS CITY     CLOUDY    79  72  79 S9        29.87F
NEBRASKA CITY  CLOUDY    77  68  74 CALM      29.88R
PLATTSMOUTH    CLOUDY    73  70  89 SE7       29.86S
$$

NEZ044-045-051>053-067-061500-
OMAHA AREA

CITY           SKY/WX    TMP DP  RH WIND       PRES   REMARKS
OMAHA EPPLEY   LGT RAIN  74  71  91 N5        29.87R
BLAIR          CLOUDY    72  69  90 CALM      29.88R
FREMONT        CLOUDY    74  71  90 NW3       29.88R
MILLARD        LGT RAIN  73  71  92 CALM      29.87R
OFFUTT AFB     CLOUDY    74  72  93 NE2       29.87R
PLATTSMOUTH    CLOUDY    73  70  89 SE7       29.86S
WAHOO          LGT RAIN  73  70  91 CALM      29.88R
$$


USA.gov is the U.S. government's official web portal to all federal, state and local government web resources and services.